Location: Sears
(37.7625°N, 100.1060°W)
Time: 21:40:05
(UTC+00:00)

Okean 1-7 Rocket - Pass Details

Date: 29 October 2020
Orbit: 615 x 650 km, 82.5° (Epoch: 30 November)

Event Time Altitude Azimuth Distance (km) Brightness Sun altitude
Rises 12:12:55 0° 208° (SSW) 2,951 6.8 -10.5°
Reaches altitude 10° 12:15:21 10° 218° (SW) 2,042 5.9 -10.0°
Maximum altitude 12:19:26 33° 282° (WNW) 1,092 4.3 -9.3°
Drops below altitude 10° 12:23:32 10° 347° (NNW) 2,040 6.0 -8.5°
Sets 12:25:58 0° 357° (N) 2,948 6.9 -8.0°
